Time,TemperatureF,DewpointF,PressureIn,WindDirection,WindDirectionDegrees,WindSpeedMPH,WindSpeedGustMPH,Humidity,HourlyPrecipIn,Conditions,Clouds,dailyrainin,SoftwareType,DateUTC
2013-09-21 00:13:00,67.0,61.0,29.87,East,82,2.0,6.0,82,0.00,,,0.00,weatherlink.com 1.10,2013-09-21 04:13:00,
2013-09-21 00:28:00,66.8,61.0,29.86,ENE,69,0.0,3.0,82,0.00,,,0.00,weatherlink.com 1.10,2013-09-21 04:28:00,
2013-09-21 00:43:00,66.5,61.0,29.86,East,79,2.0,5.0,82,0.00,,,0.00,weatherlink.com 1.10,2013-09-21 04:43:00,
2013-09-21 00:58:00,66.0,61.0,29.86,ESE,106,0.0,4.0,84,0.00,,,0.00,weatherlink.com 1.10,2013-09-21 04:58:00,
2013-09-21 01:13:00,65.6,61.0,29.85,ENE,74,1.0,3.0,84,0.00,,,0.00,weatherlink.com 1.10,2013-09-21 05:13:00,
2013-09-21 01:28:00,65.2,61.0,29.86,SSW,204,2.0,3.0,85,0.00,,,0.00,weatherlink.com 1.10,2013-09-21 05:28:00,
2013-09-21 01:43:00,65.0,61.0,29.85,East,90,1.0,3.0,86,0.00,,,0.00,weatherlink.com 1.10,2013-09-21 05:43:00,
2013-09-21 01:58:00,64.5,60.0,29.85,East,98,1.0,4.0,86,0.00,,,0.00,weatherlink.com 1.10,2013-09-21 05:58:00,
2013-09-21 02:13:00,64.3,60.0,29.85,ESE,118,0.0,4.0,87,0.00,,,0.00,weatherlink.com 1.10,2013-09-21 06:13:00,
2013-09-21 02:29:00,64.0,60.0,29.85,East,96,2.0,3.0,87,0.00,,,0.00,weatherlink.com 1.10,2013-09-21 06:29:00,
2013-09-21 02:43:00,64.0,60.0,29.85,SSE,155,0.0,3.0,87,0.00,,,0.00,weatherlink.com 1.10,2013-09-21 06:43:00,
2013-09-21 02:58:00,63.9,60.0,29.84,ESE,119,1.0,6.0,87,0.00,,,0.00,weatherlink.com 1.10,2013-09-21 06:58:00,
2013-09-21 03:13:00,63.8,60.0,29.83,East,82,1.0,5.0,88,0.00,,,0.00,weatherlink.com 1.10,2013-09-21 07:13:00,
2013-09-21 03:28:00,63.8,60.0,29.83,ENE,71,2.0,3.0,88,0.00,,,0.00,weatherlink.com 1.10,2013-09-21 07:28:00,
2013-09-21 03:43:00,63.8,60.0,29.83,East,98,0.0,5.0,88,0.00,,,0.00,weatherlink.com 1.10,2013-09-21 07:43:00,
2013-09-21 03:58:00,63.8,60.0,29.82,East,80,1.0,3.0,88,0.00,,,0.00,weatherlink.com 1.10,2013-09-21 07:58:00,
2013-09-21 04:13:00,63.7,60.0,29.82,ESE,111,1.0,4.0,88,0.00,,,0.00,weatherlink.com 1.10,2013-09-21 08:13:00,
2013-09-21 04:28:00,63.6,60.0,29.82,ESE,113,1.0,4.0,88,0.00,,,0.00,weatherlink.com 1.10,2013-09-21 08:28:00,
2013-09-21 04:43:00,63.6,60.0,29.82,SE,138,0.0,6.0,88,0.00,,,0.00,weatherlink.com 1.10,2013-09-21 08:43:00,
2013-09-21 04:58:00,63.6,60.0,29.81,SSW,213,0.0,4.0,89,0.00,,,0.00,weatherlink.com 1.10,2013-09-21 08:58:00,
2013-09-21 05:13:00,63.5,60.0,29.80,East,95,0.0,3.0,89,0.00,,,0.00,weatherlink.com 1.10,2013-09-21 09:13:00,
2013-09-21 05:28:00,63.2,60.0,29.80,ESE,109,0.0,3.0,90,0.00,,,0.00,weatherlink.com 1.10,2013-09-21 09:28:00,
2013-09-21 05:43:00,62.9,60.0,29.80,ESE,118,0.0,2.0,90,0.00,,,0.00,weatherlink.com 1.10,2013-09-21 09:43:00,
2013-09-21 05:58:00,62.7,60.0,29.80,ENE,76,0.0,2.0,91,0.00,,,0.00,weatherlink.com 1.10,2013-09-21 09:58:00,
2013-09-21 06:13:00,62.9,60.0,29.79,NE,47,2.0,3.0,91,0.00,,,0.00,weatherlink.com 1.10,2013-09-21 10:13:00,
2013-09-21 06:28:00,63.0,60.0,29.79,East,90,2.0,5.0,91,0.00,,,0.00,weatherlink.com 1.10,2013-09-21 10:28:00,
2013-09-21 06:43:00,62.7,60.0,29.79,NE,55,0.0,4.0,91,0.00,,,0.00,weatherlink.com 1.10,2013-09-21 10:43:00,
2013-09-21 06:58:00,62.6,60.0,29.79,ESE,122,0.0,3.0,92,0.00,,,0.00,weatherlink.com 1.10,2013-09-21 10:58:00,
2013-09-21 07:13:00,62.6,60.0,29.79,SSE,148,1.0,7.0,92,0.00,,,0.00,weatherlink.com 1.10,2013-09-21 11:13:00,
2013-09-21 07:28:00,63.0,61.0,29.78,East,84,0.0,4.0,92,0.00,,,0.00,weatherlink.com 1.10,2013-09-21 11:28:00,
2013-09-21 07:43:00,63.2,61.0,29.78,NW,304,1.0,4.0,92,0.00,,,0.00,weatherlink.com 1.10,2013-09-21 11:43:00,
2013-09-21 07:59:00,63.6,61.0,29.77,East,88,1.0,5.0,91,0.00,,,0.00,weatherlink.com 1.10,2013-09-21 11:59:00,
2013-09-21 08:14:00,64.0,61.0,29.77,ENE,76,2.0,5.0,91,0.00,,,0.00,weatherlink.com 1.10,2013-09-21 12:14:00,
2013-09-21 08:29:00,64.3,62.0,29.77,South,171,1.0,7.0,91,0.00,,,0.00,weatherlink.com 1.10,2013-09-21 12:29:00,
2013-09-21 08:44:00,64.3,62.0,29.77,SSE,160,0.0,6.0,91,0.00,,,0.00,weatherlink.com 1.10,2013-09-21 12:44:00,
2013-09-21 08:59:00,64.6,62.0,29.77,SE,129,1.0,5.0,91,0.00,,,0.00,weatherlink.com 1.10,2013-09-21 12:59:00,
2013-09-21 09:14:00,65.1,62.0,29.77,SSE,147,2.0,6.0,89,0.00,,,0.00,weatherlink.com 1.10,2013-09-21 13:14:00,
2013-09-21 09:29:00,65.3,62.0,29.76,SE,143,0.0,4.0,90,0.00,,,0.00,weatherlink.com 1.10,2013-09-21 13:29:00,
2013-09-21 09:44:00,65.4,62.0,29.76,ESE,105,1.0,7.0,89,0.00,,,0.00,weatherlink.com 1.10,2013-09-21 13:44:00,
2013-09-21 09:59:00,65.4,63.0,29.76,ESE,123,0.0,6.0,90,0.00,,,0.00,weatherlink.com 1.10,2013-09-21 13:59:00,
2013-09-21 10:14:00,65.5,63.0,29.75,ESE,118,0.0,3.0,90,0.00,,,0.00,weatherlink.com 1.10,2013-09-21 14:14:00,
2013-09-21 10:29:00,65.9,63.0,29.75,ENE,73,0.0,2.0,90,0.00,,,0.00,weatherlink.com 1.10,2013-09-21 14:29:00,
2013-09-21 10:44:00,66.6,63.0,29.74,ESE,114,1.0,4.0,88,0.00,,,0.00,weatherlink.com 1.10,2013-09-21 14:44:00,
2013-09-21 10:59:00,67.7,63.0,29.73,East,82,1.0,7.0,86,0.00,,,0.00,weatherlink.com 1.10,2013-09-21 14:59:00,
2013-09-21 11:14:00,68.3,64.0,29.73,East,85,3.0,8.0,85,0.00,,,0.00,weatherlink.com 1.10,2013-09-21 15:14:00,
2013-09-21 11:29:00,68.2,64.0,29.73,ESE,109,2.0,5.0,86,0.00,,,0.00,weatherlink.com 1.10,2013-09-21 15:29:00,
2013-09-21 11:44:00,68.4,64.0,29.72,ENE,78,2.0,6.0,86,0.00,,,0.00,weatherlink.com 1.10,2013-09-21 15:44:00,
2013-09-21 11:59:00,68.5,64.0,29.71,North,11,1.0,5.0,85,0.00,,,0.00,weatherlink.com 1.10,2013-09-21 15:59:00,
2013-09-21 12:14:00,68.3,64.0,29.71,North,355,0.0,4.0,85,0.00,,,0.00,weatherlink.com 1.10,2013-09-21 16:14:00,
2013-09-21 12:29:00,68.1,64.0,29.71,SSW,202,0.0,6.0,86,0.00,,,0.00,weatherlink.com 1.10,2013-09-21 16:29:00,
2013-09-21 12:44:00,68.0,64.0,29.70,ENE,76,4.0,7.0,86,0.00,,,0.00,weatherlink.com 1.10,2013-09-21 16:44:00,
2013-09-21 12:59:00,68.0,64.0,29.70,SE,137,0.0,10.0,86,0.00,,,0.00,weatherlink.com 1.10,2013-09-21 16:59:00,
2013-09-21 13:14:00,67.9,64.0,29.69,South,191,0.0,5.0,86,0.00,,,0.00,weatherlink.com 1.10,2013-09-21 17:14:00,
2013-09-21 13:29:00,67.7,63.0,29.69,ENE,71,2.0,8.0,86,0.00,,,0.00,weatherlink.com 1.10,2013-09-21 17:29:00,
2013-09-21 13:44:00,67.4,63.0,29.68,ESE,112,0.0,8.0,86,0.00,,,0.00,weatherlink.com 1.10,2013-09-21 17:44:00,
2013-09-21 13:59:00,67.5,63.0,29.67,ENE,73,0.0,4.0,86,0.00,,,0.00,weatherlink.com 1.10,2013-09-21 17:59:00,
2013-09-21 14:14:00,67.6,63.0,29.67,South,179,0.0,7.0,86,0.00,,,0.00,weatherlink.com 1.10,2013-09-21 18:14:00,
2013-09-21 14:29:00,67.3,63.0,29.66,NNE,13,1.0,8.0,87,0.00,,,0.00,weatherlink.com 1.10,2013-09-21 18:29:00,
2013-09-21 14:44:00,67.5,64.0,29.66,NW,306,1.0,4.0,88,0.00,,,0.00,weatherlink.com 1.10,2013-09-21 18:44:00,
2013-09-21 15:00:00,67.6,64.0,29.65,ESE,109,2.0,6.0,88,0.00,,,0.00,weatherlink.com 1.10,2013-09-21 19:00:00,
2013-09-21 15:14:00,67.5,64.0,29.65,ENE,75,1.0,5.0,89,0.00,,,0.00,weatherlink.com 1.10,2013-09-21 19:14:00,
2013-09-21 15:29:00,67.2,65.0,29.65,SSW,209,0.0,3.0,91,0.01,,,0.01,weatherlink.com 1.10,2013-09-21 19:29:00,
2013-09-21 15:44:00,66.8,65.0,29.64,WSW,242,2.0,4.0,92,0.02,,,0.02,weatherlink.com 1.10,2013-09-21 19:44:00,
2013-09-21 15:59:00,66.5,65.0,29.64,East,79,0.0,4.0,93,0.03,,,0.03,weatherlink.com 1.10,2013-09-21 19:59:00,
2013-09-21 16:14:00,66.2,65.0,29.63,ENE,78,0.0,5.0,94,0.04,,,0.04,weatherlink.com 1.10,2013-09-21 20:14:00,
2013-09-21 16:29:00,66.0,64.0,29.63,ESE,110,2.0,5.0,94,0.04,,,0.05,weatherlink.com 1.10,2013-09-21 20:29:00,
2013-09-21 16:44:00,65.9,65.0,29.62,East,84,1.0,3.0,95,0.04,,,0.06,weatherlink.com 1.10,2013-09-21 20:44:00,
2013-09-21 16:59:00,65.8,64.0,29.61,ENE,63,0.0,3.0,95,0.04,,,0.07,weatherlink.com 1.10,2013-09-21 20:59:00,
2013-09-21 17:14:00,65.8,65.0,29.61,East,88,1.0,3.0,96,0.04,,,0.08,weatherlink.com 1.10,2013-09-21 21:14:00,
2013-09-21 17:29:00,65.7,65.0,29.61,ENE,72,1.0,3.0,96,0.04,,,0.09,weatherlink.com 1.10,2013-09-21 21:29:00,
2013-09-21 17:44:00,65.6,65.0,29.61,SE,132,1.0,3.0,96,0.03,,,0.09,weatherlink.com 1.10,2013-09-21 21:44:00,
2013-09-21 17:59:00,65.7,65.0,29.62,WNW,293,4.0,4.0,96,0.04,,,0.11,weatherlink.com 1.10,2013-09-21 21:59:00,
2013-09-21 18:15:00,63.9,62.0,29.63,West,262,0.0,10.0,93,0.20,,,0.28,weatherlink.com 1.10,2013-09-21 22:15:00,
2013-09-21 18:30:00,62.6,61.0,29.64,West,278,4.0,7.0,94,0.25,,,0.34,weatherlink.com 1.10,2013-09-21 22:30:00,
2013-09-21 18:45:00,61.8,60.0,29.64,West,265,0.0,4.0,94,0.28,,,0.37,weatherlink.com 1.10,2013-09-21 22:45:00,
2013-09-21 19:00:00,61.4,60.0,29.66,West,266,0.0,3.0,95,0.27,,,0.40,weatherlink.com 1.10,2013-09-21 23:00:00,
2013-09-21 19:15:00,61.1,60.0,29.65,WNW,291,2.0,2.0,96,0.16,,,0.44,weatherlink.com 1.10,2013-09-21 23:15:00,
2013-09-21 19:30:00,60.9,60.0,29.63,NNE,29,1.0,3.0,96,0.13,,,0.47,weatherlink.com 1.10,2013-09-21 23:30:00,
2013-09-21 19:45:00,60.8,60.0,29.65,WSW,249,0.0,1.0,96,0.12,,,0.49,weatherlink.com 1.10,2013-09-21 23:45:00,
2013-09-21 20:00:00,60.7,60.0,29.64,North,351,0.0,1.0,96,0.11,,,0.51,weatherlink.com 1.10,2013-09-22 00:00:00,
2013-09-21 20:15:00,60.7,60.0,29.65,West,266,0.0,3.0,96,0.09,,,0.53,weatherlink.com 1.10,2013-09-22 00:15:00,
2013-09-21 20:30:00,60.6,60.0,29.66,WNW,289,0.0,2.0,97,0.06,,,0.53,weatherlink.com 1.10,2013-09-22 00:30:00,
2013-09-21 20:45:00,60.6,60.0,29.66,WNW,289,0.0,2.0,97,0.06,,,0.55,weatherlink.com 1.10,2013-09-22 00:45:00,
2013-09-21 21:00:00,60.5,60.0,29.66,WNW,289,0.0,0.0,97,0.04,,,0.55,weatherlink.com 1.10,2013-09-22 01:00:00,
2013-09-21 21:15:00,60.6,60.0,29.66,WNW,293,1.0,3.0,97,0.02,,,0.55,weatherlink.com 1.10,2013-09-22 01:15:00,
2013-09-21 21:30:00,60.5,60.0,29.67,WNW,291,1.0,4.0,97,0.02,,,0.55,weatherlink.com 1.10,2013-09-22 01:30:00,
2013-09-21 21:45:00,60.5,60.0,29.67,WNW,291,0.0,3.0,97,0.01,,,0.56,weatherlink.com 1.10,2013-09-22 01:45:00,
2013-09-21 22:00:00,60.6,60.0,29.68,WNW,297,0.0,3.0,97,0.01,,,0.56,weatherlink.com 1.10,2013-09-22 02:00:00,
2013-09-21 22:15:00,60.6,60.0,29.68,WNW,291,1.0,3.0,97,0.01,,,0.56,weatherlink.com 1.10,2013-09-22 02:15:00,
2013-09-21 22:30:00,60.7,60.0,29.68,WNW,291,0.0,2.0,97,0.01,,,0.56,weatherlink.com 1.10,2013-09-22 02:30:00,
2013-09-21 22:45:00,60.6,60.0,29.68,WNW,291,0.0,1.0,97,0.00,,,0.56,weatherlink.com 1.10,2013-09-22 02:45:00,
2013-09-21 23:00:00,60.6,60.0,29.68,WNW,296,0.0,0.0,97,0.00,,,0.56,weatherlink.com 1.10,2013-09-22 03:00:00,
2013-09-21 23:15:00,60.5,60.0,29.68,WNW,296,0.0,1.0,97,0.00,,,0.56,weatherlink.com 1.10,2013-09-22 03:15:00,
2013-09-21 23:30:00,60.3,60.0,29.68,WNW,296,0.0,0.0,97,0.00,,,0.56,weatherlink.com 1.10,2013-09-22 03:30:00,
2013-09-21 23:45:00,60.1,59.0,29.68,WNW,296,0.0,0.0,97,0.00,,,0.56,weatherlink.com 1.10,2013-09-22 03:45:00,